This demonstration page uses our WeatherBlox Daily Observations layout. Learn more.

Left ArrowRight Arrow

Hourly Observations for July 26, 2022

Temp ( °F °C ) Dew Point ( °F °C ) Humidity (%) Winds ( mph kmh ) Pressure ( in mb ) Visibility ( mi km ) Precip ( " mm )
12:52 am 00:52 Partly Cloudy 68 20 61 16.1 78 78 SE 12 19 29.98 1015 10 16 0.00 0.00
1:52 am 01:52 Mostly Clear 66 18.9 61 16.1 84 84 SSE 7 11 29.97 1015 10 16 0.00 0.00
2:52 am 02:52 Cloudy 67 19.4 61 16.1 81 81 SE 9 15 29.96 1015 10 16 0.00 0.00
3:52 am 03:52 Cloudy 67 19.4 61 16.1 81 81 SSE 6 9 29.95 1014 10 16 0.00 0.00
4:52 am 04:52 Cloudy 67 19.4 61 16.1 81 81 SSE 7 11 29.94 1014 10 16 0.00 0.00
5:52 am 05:52 Cloudy 67 19.4 61 16.1 81 81 SE 8 13 29.94 1014 10 16 0.00 0.00
6:52 am 06:52 Cloudy 67 19.4 61 16.1 81 81 ESE 3 6 29.96 1015 10 16 0.00 0.00
7:52 am 07:52 Cloudy 67 19.4 62 16.7 84 84 ESE 6 9 29.96 1015 10 16 0.00 0.00
8:52 am 08:52 Cloudy 68 20 62 16.7 81 81 Calm 29.98 1015 10 16 0.00 0.00
9:52 am 09:52 Cloudy 69 20.6 62 16.7 78 78 NNW 5 7 29.99 1016 10 16 0.00 0.00
10:52 am 10:52 Cloudy 70 21.1 62 16.7 76 76 VRB 3 6 29.95 1014 10 16 0.00 0.00
11:52 am 11:52 Mostly Cloudy 74 23.3 64 17.8 71 71 SSE 10 17 29.91 1013 10 16 0.00 0.00
12:52 pm 12:52 Mostly Cloudy 78 25.6 66 18.9 67 67 VRB 5 7 29.91 1013 10 16 0.00 0.00
1:52 pm 13:52 Mostly Cloudy 79 26.1 66 18.9 65 65 VRB 5 7 29.90 1013 10 16 0.00 0.00
2:52 pm 14:52 Cloudy 81 27.2 67 19.4 62 62 VRB 7 11 29.91 1013 10 16 0.00 0.00
3:52 pm 15:52 Cloudy 81 27.2 68 20 65 65 SSW 9 15 29.91 1013 10 16 0.00 0.00
4:52 pm 16:52 Mostly Cloudy 82 27.8 68 20 63 63 VRB 5 7 29.88 1012 10 16 0.00 0.00
5:52 pm 17:52 Mostly Cloudy 83 28.3 69 20.6 63 63 SSW 5 7 29.88 1012 10 16 0.00 0.00
6:52 pm 18:52 Mostly Cloudy 82 27.8 67 19.4 60 60 N 6 9 29.86 1011 10 16 0.00 0.00
7:52 pm 19:52 Cloudy 80 26.7 68 20 67 67 NW 7 11 29.89 1012 10 16 0.00 0.00
8:25 pm 20:25 Cloudy with Thunderstorms 79 26.1 68 20 69 69 WNW 5 7 29.89 1012 10 16 0.00 0.00
8:52 pm 20:52 Cloudy with Thunderstorms 78 25.6 72 22.2 82 82 S 7 11 29.90 1012 10 16 0.02 0.51
9:16 pm 21:16 Cloudy with Rain 76 24.4 72 22.2 88 88 SSW 6 9 29.88 1012 10 16 0.04 1.02
9:23 pm 21:23 Cloudy with Nearby Thunderstorms 76 24.4 72 22.2 88 88 VRB 3 6 29.89 1012 8 13 0.06 1.52
9:38 pm 21:38 Cloudy with Light Rain 75 23.9 73 22.8 94 94 NNE 6 9 29.90 1012 10 16 0.08 2.03
9:52 pm 21:52 Cloudy 76 24.4 73 22.8 91 91 ESE 5 7 29.91 1013 10 16 0.08 2.03
10:52 pm 22:52 Cloudy 73 22.8 72 22.2 96 96 SSE 5 7 29.91 1013 10 16 0.00 0.00
11:52 pm 23:52 Partly Cloudy 73 22.8 72 22.2 96 96 Calm 29.90 1013 10 16 0.00 0.00

Powered by AerisWeather